Time,TemperatureF,DewpointF,PressureIn,WindDirection,WindDirectionDegrees,WindSpeedMPH,WindSpeedGustMPH,Humidity,HourlyPrecipIn,Conditions,Clouds,dailyrainin,SoftwareType,DateUTC
2013-05-06 00:01:00,31.5,23.1,30.33,NNE,22,0.0,0.0,71,0.00,,,0.00,Weather View 32 v70,2013-05-06 08:01:00,
2013-05-06 00:06:00,31.1,22.8,30.33,NNE,22,0.0,0.0,71,0.00,,,0.00,Weather View 32 v70,2013-05-06 08:06:00,
2013-05-06 00:11:00,31.1,22.8,30.33,NNE,22,0.0,0.0,71,0.00,,,0.00,Weather View 32 v70,2013-05-06 08:11:00,
2013-05-06 00:16:00,30.9,23.3,30.33,NNE,22,0.0,0.0,73,0.00,,,0.00,Weather View 32 v70,2013-05-06 08:16:00,
2013-05-06 00:21:00,30.7,23.1,30.33,NNE,22,0.0,0.0,73,0.00,,,0.00,Weather View 32 v70,2013-05-06 08:21:00,
2013-05-06 00:26:00,30.6,22.9,30.33,NNE,22,0.0,0.0,73,0.00,,,0.00,Weather View 32 v70,2013-05-06 08:26:00,
2013-05-06 00:31:00,30.6,23.3,30.33,NNE,22,0.0,0.0,74,0.00,,,0.00,Weather View 32 v70,2013-05-06 08:31:00,
2013-05-06 00:36:00,30.4,23.1,30.33,NNE,22,0.0,0.0,74,0.00,,,0.00,Weather View 32 v70,2013-05-06 08:36:00,
2013-05-06 00:41:00,30.4,23.4,30.33,NNE,22,0.0,0.0,75,0.00,,,0.00,Weather View 32 v70,2013-05-06 08:41:00,
2013-05-06 00:46:00,30.4,23.4,30.33,NNE,22,0.0,0.0,75,0.00,,,0.00,Weather View 32 v70,2013-05-06 08:46:00,
2013-05-06 00:51:00,30.4,23.4,30.33,NNE,22,0.0,0.0,75,0.00,,,0.00,Weather View 32 v70,2013-05-06 08:51:00,
2013-05-06 00:56:00,30.2,23.2,30.33,NNE,22,0.0,0.0,75,0.00,,,0.00,Weather View 32 v70,2013-05-06 08:56:00,
2013-05-06 01:01:00,30.4,23.7,30.33,NNE,22,0.0,0.0,76,0.00,,,0.00,Weather View 32 v70,2013-05-06 09:01:00,
2013-05-06 01:06:00,30.0,23.4,30.33,NNE,22,0.0,0.0,76,0.00,,,0.00,Weather View 32 v70,2013-05-06 09:06:00,
2013-05-06 01:11:00,29.8,23.2,30.33,NNE,22,0.0,0.0,76,0.00,,,0.00,Weather View 32 v70,2013-05-06 09:11:00,
2013-05-06 01:16:00,29.8,23.2,30.33,NNE,22,0.0,0.0,76,0.00,,,0.00,Weather View 32 v70,2013-05-06 09:16:00,
2013-05-06 01:21:00,30.0,23.4,30.33,NNE,22,0.0,0.0,76,0.00,,,0.00,Weather View 32 v70,2013-05-06 09:21:00,
2013-05-06 01:26:00,29.7,23.0,30.34,NNE,22,0.0,0.0,76,0.00,,,0.00,Weather View 32 v70,2013-05-06 09:26:00,
2013-05-06 01:31:00,29.7,23.3,30.34,NNE,22,0.0,0.0,77,0.00,,,0.00,Weather View 32 v70,2013-05-06 09:31:00,
2013-05-06 01:36:00,29.5,22.8,30.34,NNE,22,0.0,0.0,76,0.00,,,0.00,Weather View 32 v70,2013-05-06 09:36:00,
2013-05-06 01:41:00,29.3,22.7,30.34,NNE,22,0.0,0.0,76,0.00,,,0.00,Weather View 32 v70,2013-05-06 09:41:00,
2013-05-06 01:46:00,29.1,22.8,30.34,NNE,22,0.0,0.0,77,0.00,,,0.00,Weather View 32 v70,2013-05-06 09:46:00,
2013-05-06 01:51:00,29.1,23.1,30.34,NNE,22,0.0,0.0,78,0.00,,,0.00,Weather View 32 v70,2013-05-06 09:51:00,
2013-05-06 01:56:00,29.1,23.1,30.34,NNE,22,0.0,0.0,78,0.00,,,0.00,Weather View 32 v70,2013-05-06 09:56:00,
2013-05-06 02:01:00,28.9,22.9,30.34,NNE,22,0.0,0.0,78,0.00,,,0.00,Weather View 32 v70,2013-05-06 10:01:00,
2013-05-06 02:06:00,28.9,22.9,30.34,NNE,22,0.0,0.0,78,0.00,,,0.00,Weather View 32 v70,2013-05-06 10:06:00,
2013-05-06 02:11:00,28.9,22.9,30.34,NNE,22,0.0,0.0,78,0.00,,,0.00,Weather View 32 v70,2013-05-06 10:11:00,
2013-05-06 02:16:00,28.9,22.9,30.34,NNE,22,0.0,0.0,78,0.00,,,0.00,Weather View 32 v70,2013-05-06 10:16:00,
2013-05-06 02:21:00,28.9,23.2,30.34,NNE,22,0.0,0.0,79,0.00,,,0.00,Weather View 32 v70,2013-05-06 10:21:00,
2013-05-06 02:26:00,28.9,22.9,30.34,NNE,22,0.0,0.0,78,0.00,,,0.00,Weather View 32 v70,2013-05-06 10:26:00,
2013-05-06 02:31:00,28.8,23.1,30.34,NNE,22,0.0,0.0,79,0.00,,,0.00,Weather View 32 v70,2013-05-06 10:31:00,
2013-05-06 02:36:00,28.9,22.9,30.34,NNE,22,0.0,0.0,78,0.00,,,0.00,Weather View 32 v70,2013-05-06 10:36:00,
2013-05-06 02:41:00,28.9,23.2,30.34,NNE,22,0.0,0.0,79,0.00,,,0.00,Weather View 32 v70,2013-05-06 10:41:00,
2013-05-06 02:46:00,29.1,23.4,30.34,NNE,22,0.0,0.0,79,0.00,,,0.00,Weather View 32 v70,2013-05-06 10:46:00,
2013-05-06 02:51:00,29.1,23.4,30.34,NNE,22,0.0,0.0,79,0.00,,,0.00,Weather View 32 v70,2013-05-06 10:51:00,
2013-05-06 02:56:00,29.3,23.6,30.34,NNE,22,0.0,0.0,79,0.00,,,0.00,Weather View 32 v70,2013-05-06 10:56:00,
2013-05-06 03:01:00,29.3,23.6,30.34,NNE,22,0.0,0.0,79,0.00,,,0.00,Weather View 32 v70,2013-05-06 11:01:00,
2013-05-06 03:06:00,29.3,23.6,30.35,NNE,22,0.0,0.0,79,0.00,,,0.00,Weather View 32 v70,2013-05-06 11:06:00,
2013-05-06 03:11:00,29.3,23.6,30.35,NNE,22,0.0,0.0,79,0.00,,,0.00,Weather View 32 v70,2013-05-06 11:11:00,
2013-05-06 03:16:00,28.9,23.2,30.35,NNE,22,0.0,0.0,79,0.00,,,0.00,Weather View 32 v70,2013-05-06 11:16:00,
2013-05-06 03:21:00,28.9,23.2,30.35,NNE,22,0.0,0.0,79,0.00,,,0.00,Weather View 32 v70,2013-05-06 11:21:00,
2013-05-06 03:26:00,29.1,23.4,30.35,NNE,22,0.0,0.0,79,0.00,,,0.00,Weather View 32 v70,2013-05-06 11:26:00,
2013-05-06 03:31:00,29.1,23.4,30.35,NNE,22,0.0,0.0,79,0.00,,,0.00,Weather View 32 v70,2013-05-06 11:31:00,
2013-05-06 03:36:00,29.1,23.4,30.35,NNE,22,0.0,0.0,79,0.00,,,0.00,Weather View 32 v70,2013-05-06 11:36:00,
2013-05-06 03:41:00,29.3,23.9,30.35,NNE,22,0.0,0.0,80,0.00,,,0.00,Weather View 32 v70,2013-05-06 11:41:00,
2013-05-06 03:46:00,29.7,24.5,30.35,NNE,22,0.0,0.0,81,0.00,,,0.00,Weather View 32 v70,2013-05-06 11:46:00,
2013-05-06 03:51:00,29.5,24.1,30.35,NNE,22,0.0,0.0,80,0.00,,,0.00,Weather View 32 v70,2013-05-06 11:51:00,
2013-05-06 03:56:00,29.7,23.9,30.35,NNE,22,0.0,0.0,79,0.00,,,0.00,Weather View 32 v70,2013-05-06 11:56:00,
2013-05-06 04:01:00,29.7,23.9,30.35,NNE,22,0.0,0.0,79,0.00,,,0.00,Weather View 32 v70,2013-05-06 12:01:00,
2013-05-06 04:06:00,29.7,23.9,30.35,NNE,22,0.0,0.0,79,0.00,,,0.00,Weather View 32 v70,2013-05-06 12:06:00,
2013-05-06 04:11:00,29.7,24.2,30.35,NNE,22,0.0,0.0,80,0.00,,,0.00,Weather View 32 v70,2013-05-06 12:11:00,
2013-05-06 04:16:00,29.7,24.2,30.35,NNE,22,0.0,0.0,80,0.00,,,0.00,Weather View 32 v70,2013-05-06 12:16:00,
2013-05-06 04:21:00,29.7,24.2,30.35,NNE,22,0.0,0.0,80,0.00,,,0.00,Weather View 32 v70,2013-05-06 12:21:00,
2013-05-06 04:26:00,29.7,24.5,30.35,NNE,22,0.0,0.0,81,0.00,,,0.00,Weather View 32 v70,2013-05-06 12:26:00,
2013-05-06 04:31:00,29.7,24.2,30.35,NNE,22,0.0,0.0,80,0.00,,,0.00,Weather View 32 v70,2013-05-06 12:31:00,
2013-05-06 04:36:00,29.8,24.4,30.35,NNE,22,0.0,0.0,80,0.00,,,0.00,Weather View 32 v70,2013-05-06 12:36:00,
2013-05-06 04:41:00,29.8,24.4,30.35,NNE,22,0.0,0.0,80,0.00,,,0.00,Weather View 32 v70,2013-05-06 12:41:00,
2013-05-06 04:46:00,29.8,24.1,30.35,NNE,22,0.0,0.0,79,0.00,,,0.00,Weather View 32 v70,2013-05-06 12:46:00,
2013-05-06 04:51:00,29.8,24.4,30.35,NNE,22,0.0,0.0,80,0.00,,,0.00,Weather View 32 v70,2013-05-06 12:51:00,
2013-05-06 04:56:00,29.8,24.4,30.35,NNE,22,0.0,0.0,80,0.00,,,0.00,Weather View 32 v70,2013-05-06 12:56:00,
2013-05-06 05:01:00,30.0,24.6,30.35,NNE,22,0.0,0.0,80,0.00,,,0.00,Weather View 32 v70,2013-05-06 13:01:00,
2013-05-06 05:06:00,30.0,24.6,30.35,NNE,22,0.0,0.0,80,0.00,,,0.00,Weather View 32 v70,2013-05-06 13:06:00,
2013-05-06 05:11:00,30.0,24.9,30.35,NNE,22,0.0,0.0,81,0.00,,,0.00,Weather View 32 v70,2013-05-06 13:11:00,
2013-05-06 05:16:00,30.4,25.2,30.35,NNE,22,0.0,0.0,81,0.00,,,0.00,Weather View 32 v70,2013-05-06 13:16:00,
2013-05-06 05:21:00,30.4,24.9,30.35,NNE,22,0.0,0.0,80,0.00,,,0.00,Weather View 32 v70,2013-05-06 13:21:00,
2013-05-06 05:26:00,30.2,24.8,30.37,NNE,22,0.0,0.0,80,0.00,,,0.00,Weather View 32 v70,2013-05-06 13:26:00,
2013-05-06 05:31:00,30.4,25.2,30.37,NNE,22,0.0,0.0,81,0.00,,,0.00,Weather View 32 v70,2013-05-06 13:31:00,
2013-05-06 05:36:00,30.4,25.2,30.37,NNE,22,0.0,0.0,81,0.00,,,0.00,Weather View 32 v70,2013-05-06 13:36:00,
2013-05-06 05:41:00,30.4,25.2,30.37,NNE,22,0.0,0.0,81,0.00,,,0.00,Weather View 32 v70,2013-05-06 13:41:00,
2013-05-06 05:46:00,30.4,24.9,30.36,NNE,22,0.0,0.0,80,0.00,,,0.00,Weather View 32 v70,2013-05-06 13:46:00,
2013-05-06 05:51:00,30.4,25.2,30.36,NNE,22,0.0,0.0,81,0.00,,,0.00,Weather View 32 v70,2013-05-06 13:51:00,
2013-05-06 05:56:00,30.4,24.9,30.36,NNE,22,0.0,0.0,80,0.00,,,0.00,Weather View 32 v70,2013-05-06 13:56:00,
2013-05-06 06:01:00,30.4,25.2,30.36,NNE,22,0.0,0.0,81,0.00,,,0.00,Weather View 32 v70,2013-05-06 14:01:00,
2013-05-06 06:06:00,30.6,25.4,30.39,NNE,22,0.0,0.0,81,0.00,,,0.00,Weather View 32 v70,2013-05-06 14:06:00,
2013-05-06 06:11:00,30.6,25.4,30.39,NNE,22,0.0,0.0,81,0.00,,,0.00,Weather View 32 v70,2013-05-06 14:11:00,
2013-05-06 06:16:00,30.7,25.6,30.39,NNE,22,0.0,0.0,81,0.00,,,0.00,Weather View 32 v70,2013-05-06 14:16:00,
2013-05-06 06:21:00,31.1,26.0,30.39,NNE,22,0.0,0.0,81,0.00,,,0.00,Weather View 32 v70,2013-05-06 14:21:00,
2013-05-06 06:26:00,30.9,25.8,30.41,NNE,22,0.0,0.0,81,0.00,,,0.00,Weather View 32 v70,2013-05-06 14:26:00,
2013-05-06 06:31:00,31.1,26.0,30.41,NNE,22,0.0,0.0,81,0.00,,,0.00,Weather View 32 v70,2013-05-06 14:31:00,
2013-05-06 06:36:00,31.5,26.3,30.41,NNE,22,0.0,0.0,81,0.00,,,0.00,Weather View 32 v70,2013-05-06 14:36:00,
2013-05-06 06:41:00,31.3,26.1,30.41,NNE,22,0.0,0.0,81,0.00,,,0.00,Weather View 32 v70,2013-05-06 14:41:00,
2013-05-06 06:46:00,31.3,26.1,30.41,NNE,22,0.0,0.0,81,0.00,,,0.00,Weather View 32 v70,2013-05-06 14:46:00,
2013-05-06 06:51:00,31.3,26.4,30.41,NNE,22,0.0,0.0,82,0.00,,,0.00,Weather View 32 v70,2013-05-06 14:51:00,
2013-05-06 06:56:00,31.5,26.3,30.41,NNE,22,0.0,0.0,81,0.00,,,0.00,Weather View 32 v70,2013-05-06 14:56:00,
2013-05-06 07:01:00,31.5,26.3,30.41,NNE,22,0.0,0.0,81,0.00,,,0.00,Weather View 32 v70,2013-05-06 15:01:00,
2013-05-06 07:06:00,31.8,26.7,30.42,NNE,22,0.0,0.0,81,0.00,,,0.00,Weather View 32 v70,2013-05-06 15:06:00,
2013-05-06 07:11:00,32.2,27.0,30.42,NNE,22,0.0,0.0,81,0.00,,,0.00,Weather View 32 v70,2013-05-06 15:11:00,
2013-05-06 07:16:00,32.0,26.8,30.42,NNE,22,0.0,0.0,81,0.00,,,0.00,Weather View 32 v70,2013-05-06 15:16:00,
2013-05-06 07:21:00,32.5,27.4,30.42,NNE,22,0.0,0.0,81,0.00,,,0.00,Weather View 32 v70,2013-05-06 15:21:00,
2013-05-06 07:26:00,32.7,27.2,30.42,NNE,22,0.0,0.0,80,0.00,,,0.00,Weather View 32 v70,2013-05-06 15:26:00,
2013-05-06 07:31:00,32.9,27.1,30.42,NNE,22,0.0,0.0,79,0.00,,,0.00,Weather View 32 v70,2013-05-06 15:31:00,
2013-05-06 07:36:00,33.3,27.5,30.42,NNE,22,0.0,0.0,79,0.00,,,0.00,Weather View 32 v70,2013-05-06 15:36:00,
2013-05-06 07:41:00,33.6,27.8,30.42,NNE,22,0.0,0.0,79,0.00,,,0.00,Weather View 32 v70,2013-05-06 15:41:00,
2013-05-06 07:46:00,33.4,27.6,30.43,NNE,22,0.0,0.0,79,0.00,,,0.00,Weather View 32 v70,2013-05-06 15:46:00,
2013-05-06 07:51:00,33.4,27.3,30.43,NNE,22,0.0,0.0,78,0.00,,,0.00,Weather View 32 v70,2013-05-06 15:51:00,
2013-05-06 07:56:00,34.0,27.8,30.43,NNE,22,0.0,0.0,78,0.00,,,0.00,Weather View 32 v70,2013-05-06 15:56:00,
2013-05-06 08:01:00,33.8,27.7,30.43,NNE,22,0.0,0.0,78,0.00,,,0.00,Weather View 32 v70,2013-05-06 16:01:00,
2013-05-06 08:06:00,34.3,27.9,30.43,NNE,22,0.0,0.0,77,0.00,,,0.00,Weather View 32 v70,2013-05-06 16:06:00,
2013-05-06 08:11:00,34.7,28.2,30.43,NNE,22,0.0,0.0,77,0.00,,,0.00,Weather View 32 v70,2013-05-06 16:11:00,
2013-05-06 08:16:00,34.9,28.4,30.43,NNE,22,0.0,0.0,77,0.00,,,0.00,Weather View 32 v70,2013-05-06 16:16:00,
2013-05-06 08:21:00,34.9,28.1,30.43,NNE,22,0.0,0.0,76,0.00,,,0.00,Weather View 32 v70,2013-05-06 16:21:00,
2013-05-06 08:26:00,35.4,28.6,30.44,NNE,22,0.0,0.0,76,0.00,,,0.00,Weather View 32 v70,2013-05-06 16:26:00,
2013-05-06 08:32:00,35.8,28.6,30.44,NNE,22,0.0,0.0,75,0.00,,,0.00,Weather View 32 v70,2013-05-06 16:32:00,
2013-05-06 08:37:00,36.9,29.3,30.44,NNE,22,0.0,0.0,74,0.00,,,0.00,Weather View 32 v70,2013-05-06 16:37:00,
2013-05-06 08:42:00,37.6,30.0,30.44,NNE,22,0.0,0.0,74,0.00,,,0.00,Weather View 32 v70,2013-05-06 16:42:00,
2013-05-06 08:47:00,38.3,30.1,30.43,NNE,22,0.0,0.0,72,0.00,,,0.00,Weather View 32 v70,2013-05-06 16:47:00,
2013-05-06 08:52:00,38.7,29.7,30.43,NNE,22,0.0,0.0,70,0.00,,,0.00,Weather View 32 v70,2013-05-06 16:52:00,
2013-05-06 08:57:00,39.7,29.7,30.43,NNE,22,0.0,0.0,67,0.00,,,0.00,Weather View 32 v70,2013-05-06 16:57:00,
2013-05-06 09:02:00,40.5,29.2,30.43,NNE,22,0.0,0.0,64,0.00,,,0.00,Weather View 32 v70,2013-05-06 17:02:00,
2013-05-06 09:07:00,41.2,29.1,30.42,NNE,22,0.0,0.0,62,0.00,,,0.00,Weather View 32 v70,2013-05-06 17:07:00,
2013-05-06 09:12:00,41.4,28.5,30.42,NNE,22,0.0,0.0,60,0.00,,,0.00,Weather View 32 v70,2013-05-06 17:12:00,
2013-05-06 09:17:00,42.1,27.9,30.42,NNE,22,0.0,0.0,57,0.00,,,0.00,Weather View 32 v70,2013-05-06 17:17:00,
2013-05-06 09:22:00,42.6,27.6,30.42,NNE,22,0.0,0.0,55,0.00,,,0.00,Weather View 32 v70,2013-05-06 17:22:00,
2013-05-06 09:27:00,42.8,26.8,30.42,NNE,22,0.0,0.0,53,0.00,,,0.00,Weather View 32 v70,2013-05-06 17:27:00,
2013-05-06 09:32:00,43.3,26.9,30.42,NNE,22,0.0,0.0,52,0.00,,,0.00,Weather View 32 v70,2013-05-06 17:32:00,
2013-05-06 09:37:00,43.9,25.4,30.42,NNE,22,0.0,0.0,48,0.00,,,0.00,Weather View 32 v70,2013-05-06 17:37:00,
2013-05-06 09:42:00,44.1,25.1,30.42,NNE,22,0.0,0.0,47,0.00,,,0.00,Weather View 32 v70,2013-05-06 17:42:00,
2013-05-06 09:47:00,44.4,25.4,30.42,NNE,22,0.0,0.0,47,0.00,,,0.00,Weather View 32 v70,2013-05-06 17:47:00,
2013-05-06 09:52:00,45.5,25.9,30.42,NNE,22,0.0,0.0,46,0.00,,,0.00,Weather View 32 v70,2013-05-06 17:52:00,
2013-05-06 09:57:00,45.9,26.2,30.42,NNE,22,0.0,0.0,46,0.00,,,0.00,Weather View 32 v70,2013-05-06 17:57:00,
2013-05-06 10:02:00,47.7,26.8,30.42,NNE,22,0.0,0.0,44,0.00,,,0.00,Weather View 32 v70,2013-05-06 18:02:00,
2013-05-06 10:07:00,48.6,27.0,30.41,NNE,22,0.0,0.0,43,0.00,,,0.00,Weather View 32 v70,2013-05-06 18:07:00,
2013-05-06 10:12:00,49.5,25.5,30.41,NNE,22,0.0,0.0,39,0.00,,,0.00,Weather View 32 v70,2013-05-06 18:12:00,
2013-05-06 10:17:00,50.5,25.8,30.41,NNE,22,0.0,0.0,38,0.00,,,0.00,Weather View 32 v70,2013-05-06 18:17:00,
2013-05-06 10:22:00,50.9,24.2,30.41,NNE,22,0.0,0.0,35,0.00,,,0.00,Weather View 32 v70,2013-05-06 18:22:00,
2013-05-06 10:27:00,50.0,24.0,30.40,NNE,22,0.0,0.0,36,0.00,,,0.00,Weather View 32 v70,2013-05-06 18:27:00,
2013-05-06 10:32:00,50.4,23.7,30.40,NNE,22,0.0,0.0,35,0.00,,,0.00,Weather View 32 v70,2013-05-06 18:32:00,
2013-05-06 10:37:00,50.9,24.8,30.40,NNE,22,0.0,0.0,36,0.00,,,0.00,Weather View 32 v70,2013-05-06 18:37:00,
2013-05-06 10:42:00,51.4,24.6,30.40,NNE,22,0.0,0.0,35,0.00,,,0.00,Weather View 32 v70,2013-05-06 18:42:00,
2013-05-06 10:47:00,51.3,23.8,30.40,NNE,22,0.0,0.0,34,0.00,,,0.00,Weather View 32 v70,2013-05-06 18:47:00,
2013-05-06 10:52:00,50.7,22.6,30.40,NNE,22,0.0,0.0,33,0.00,,,0.00,Weather View 32 v70,2013-05-06 18:52:00,
2013-05-06 10:57:00,50.7,23.3,30.40,NNE,22,0.0,0.0,34,0.00,,,0.00,Weather View 32 v70,2013-05-06 18:57:00,
2013-05-06 11:02:00,50.5,23.2,30.40,NNE,22,0.0,0.0,34,0.00,,,0.00,Weather View 32 v70,2013-05-06 19:02:00,
2013-05-06 11:07:00,50.7,22.6,30.40,NNE,22,0.0,0.0,33,0.00,,,0.00,Weather View 32 v70,2013-05-06 19:07:00,
2013-05-06 11:12:00,49.6,21.7,30.40,NNE,22,0.0,0.0,33,0.00,,,0.00,Weather View 32 v70,2013-05-06 19:12:00,
2013-05-06 11:17:00,49.6,21.7,30.40,NNE,22,0.0,0.0,33,0.00,,,0.00,Weather View 32 v70,2013-05-06 19:17:00,
2013-05-06 11:23:00,50.0,22.0,30.40,NNE,22,0.0,0.0,33,0.00,,,0.00,Weather View 32 v70,2013-05-06 19:23:00,
2013-05-06 11:28:00,51.1,22.9,30.40,NNE,22,0.0,0.0,33,0.00,,,0.00,Weather View 32 v70,2013-05-06 19:28:00,
2013-05-06 11:33:00,52.9,24.5,30.40,NNE,22,0.0,0.0,33,0.00,,,0.00,Weather View 32 v70,2013-05-06 19:33:00,
2013-05-06 11:38:00,55.6,23.8,30.40,NNE,22,0.0,0.0,29,0.00,,,0.00,Weather View 32 v70,2013-05-06 19:38:00,
2013-05-06 11:43:00,55.9,24.1,30.40,South,180,0.0,0.0,29,0.00,,,0.00,Weather View 32 v70,2013-05-06 19:43:00,
2013-05-06 11:48:00,57.2,25.2,30.39,WSW,248,3.0,3.0,29,0.00,,,0.00,Weather View 32 v70,2013-05-06 19:48:00,
2013-05-06 11:53:00,57.2,23.5,30.39,SSE,158,4.0,4.0,27,0.00,,,0.00,Weather View 32 v70,2013-05-06 19:53:00,
2013-05-06 11:58:00,57.7,25.6,30.39,NW,315,3.0,4.0,29,0.00,,,0.00,Weather View 32 v70,2013-05-06 19:58:00,
2013-05-06 12:03:00,59.7,26.5,30.39,WSW,248,3.0,4.0,28,0.00,,,0.00,Weather View 32 v70,2013-05-06 20:03:00,
2013-05-06 12:08:00,59.7,26.5,30.39,WSW,248,3.0,4.0,28,0.00,,,0.00,Weather View 32 v70,2013-05-06 20:08:00,
2013-05-06 12:13:00,59.7,26.5,30.39,SE,135,3.0,4.0,28,0.00,,,0.00,Weather View 32 v70,2013-05-06 20:13:00,
2013-05-06 12:18:00,60.8,25.6,30.39,SSW,202,3.0,4.0,26,0.00,,,0.00,Weather View 32 v70,2013-05-06 20:18:00,
2013-05-06 12:23:00,59.5,24.6,30.39,SE,135,4.0,4.0,26,0.00,,,0.00,Weather View 32 v70,2013-05-06 20:23:00,
2013-05-06 12:28:00,60.4,25.3,30.39,South,180,4.0,4.0,26,0.00,,,0.00,Weather View 32 v70,2013-05-06 20:28:00,
2013-05-06 12:33:00,60.6,24.5,30.39,NNW,338,4.0,4.0,25,0.00,,,0.00,Weather View 32 v70,2013-05-06 20:33:00,
2013-05-06 12:38:00,60.3,24.2,30.39,SE,135,3.0,4.0,25,0.00,,,0.00,Weather View 32 v70,2013-05-06 20:38:00,
2013-05-06 12:43:00,61.0,24.8,30.39,SSW,202,4.0,4.0,25,0.00,,,0.00,Weather View 32 v70,2013-05-06 20:43:00,
2013-05-06 12:48:00,61.7,25.4,30.40,ENE,68,3.0,4.0,25,0.00,,,0.00,Weather View 32 v70,2013-05-06 20:48:00,
2013-05-06 12:53:00,63.0,25.5,30.40,SE,135,3.0,4.0,24,0.00,,,0.00,Weather View 32 v70,2013-05-06 20:53:00,
2013-05-06 12:58:00,63.1,25.7,30.40,South,180,4.0,4.0,24,0.00,,,0.00,Weather View 32 v70,2013-05-06 20:58:00,
2013-05-06 13:03:00,63.9,25.3,30.40,SSE,158,4.0,4.0,23,0.00,,,0.00,Weather View 32 v70,2013-05-06 21:03:00,
2013-05-06 13:09:00,64.2,26.6,30.40,ESE,112,3.0,4.0,24,0.00,,,0.00,Weather View 32 v70,2013-05-06 21:09:00,
2013-05-06 13:14:00,65.1,27.4,30.40,SE,135,4.0,4.0,24,0.00,,,0.00,Weather View 32 v70,2013-05-06 21:14:00,
2013-05-06 13:19:00,65.7,25.7,30.40,SW,225,3.0,4.0,22,0.00,,,0.00,Weather View 32 v70,2013-05-06 21:19:00,
2013-05-06 13:24:00,65.3,26.5,30.39,South,180,4.0,4.0,23,0.00,,,0.00,Weather View 32 v70,2013-05-06 21:24:00,
2013-05-06 13:29:00,66.6,27.5,30.39,SE,135,4.0,4.0,23,0.00,,,0.00,Weather View 32 v70,2013-05-06 21:29:00,
2013-05-06 13:34:00,67.3,28.1,30.39,East,90,3.0,4.0,23,0.00,,,0.00,Weather View 32 v70,2013-05-06 21:34:00,
2013-05-06 13:39:00,66.6,27.5,30.39,South,180,3.0,4.0,23,0.00,,,0.00,Weather View 32 v70,2013-05-06 21:39:00,
2013-05-06 13:44:00,66.2,27.2,30.39,SSE,158,4.0,4.0,23,0.00,,,0.00,Weather View 32 v70,2013-05-06 21:44:00,
2013-05-06 13:49:00,66.4,27.4,30.39,South,180,4.0,4.0,23,0.00,,,0.00,Weather View 32 v70,2013-05-06 21:49:00,
2013-05-06 13:54:00,68.2,28.9,30.39,South,180,3.0,4.0,23,0.00,,,0.00,Weather View 32 v70,2013-05-06 21:54:00,
2013-05-06 13:59:00,69.1,31.7,30.39,NW,315,3.0,4.0,25,0.00,,,0.00,Weather View 32 v70,2013-05-06 21:59:00,
2013-05-06 14:04:00,68.2,31.9,30.39,West,270,4.0,4.0,26,0.00,,,0.00,Weather View 32 v70,2013-05-06 22:04:00,
2013-05-06 14:10:00,60.3,28.6,30.40,WNW,292,4.0,4.0,30,0.00,,,0.00,Weather View 32 v70,2013-05-06 22:10:00,
2013-05-06 14:15:00,60.3,29.4,30.40,West,270,4.0,4.0,31,0.00,,,0.00,Weather View 32 v70,2013-05-06 22:15:00,
2013-05-06 14:20:00,57.0,28.9,30.40,NW,315,3.0,4.0,34,0.00,,,0.00,Weather View 32 v70,2013-05-06 22:20:00,
2013-05-06 14:25:00,55.9,28.6,30.40,WSW,248,3.0,4.0,35,0.00,,,0.00,Weather View 32 v70,2013-05-06 22:25:00,
2013-05-06 14:30:00,58.8,29.7,30.41,West,270,5.0,5.0,33,0.00,,,0.00,Weather View 32 v70,2013-05-06 22:30:00,
2013-05-06 14:35:00,56.3,28.9,30.41,WNW,292,5.0,6.0,35,0.00,,,0.00,Weather View 32 v70,2013-05-06 22:35:00,
2013-05-06 14:40:00,59.5,31.1,30.41,NW,315,4.0,6.0,34,0.00,,,0.00,Weather View 32 v70,2013-05-06 22:40:00,
2013-05-06 14:45:00,55.0,27.1,30.41,WSW,248,5.0,6.0,34,0.00,,,0.00,Weather View 32 v70,2013-05-06 22:45:00,
2013-05-06 14:50:00,52.7,27.8,30.41,SSW,202,5.0,6.0,38,0.00,,,0.00,Weather View 32 v70,2013-05-06 22:50:00,
2013-05-06 14:55:00,53.1,28.1,30.41,West,270,4.0,6.0,38,0.00,,,0.00,Weather View 32 v70,2013-05-06 22:55:00,
2013-05-06 15:01:00,54.1,28.4,30.41,WSW,248,4.0,6.0,37,0.00,,,0.00,Weather View 32 v70,2013-05-06 23:01:00,
2013-05-06 15:06:00,55.0,28.5,30.42,NW,315,4.0,6.0,36,0.00,,,0.00,Weather View 32 v70,2013-05-06 23:06:00,
2013-05-06 15:11:00,56.5,27.7,30.42,WSW,248,5.0,6.0,33,0.00,,,0.00,Weather View 32 v70,2013-05-06 23:11:00,
2013-05-06 15:16:00,59.2,30.0,30.42,WNW,292,5.0,6.0,33,0.00,,,0.00,Weather View 32 v70,2013-05-06 23:16:00,
2013-05-06 15:21:00,59.9,29.1,30.42,SSW,202,4.0,6.0,31,0.00,,,0.00,Weather View 32 v70,2013-05-06 23:21:00,
2013-05-06 15:26:00,59.5,28.8,30.41,West,270,4.0,6.0,31,0.00,,,0.00,Weather View 32 v70,2013-05-06 23:26:00,
2013-05-06 15:31:00,57.9,28.2,30.41,West,270,4.0,6.0,32,0.00,,,0.00,Weather View 32 v70,2013-05-06 23:31:00,
2013-05-06 15:36:00,57.4,27.7,30.41,WNW,292,5.0,5.0,32,0.00,,,0.00,Weather View 32 v70,2013-05-06 23:36:00,
2013-05-06 15:41:00,56.3,28.2,30.41,WNW,292,5.0,5.0,34,0.00,,,0.00,Weather View 32 v70,2013-05-06 23:41:00,
2013-05-06 15:46:00,53.6,27.2,30.41,NE,45,6.0,6.0,36,0.00,,,0.00,Weather View 32 v70,2013-05-06 23:46:00,
2013-05-06 15:52:00,52.9,27.3,30.41,West,270,5.0,6.0,37,0.00,,,0.00,Weather View 32 v70,2013-05-06 23:52:00,
2013-05-06 15:57:00,51.8,27.0,30.41,WSW,248,5.0,6.0,38,0.00,,,0.00,Weather View 32 v70,2013-05-06 23:57:00,
2013-05-06 16:02:00,51.8,27.0,30.41,West,270,5.0,6.0,38,0.00,,,0.00,Weather View 32 v70,2013-05-07 00:02:00,
2013-05-06 16:07:00,50.9,27.4,30.42,North,0,4.0,6.0,40,0.00,,,0.00,Weather View 32 v70,2013-05-07 00:07:00,
2013-05-06 16:12:00,50.4,26.9,30.42,WSW,248,5.0,6.0,40,0.00,,,0.00,Weather View 32 v70,2013-05-07 00:12:00,
2013-05-06 16:17:00,49.8,27.0,30.42,NW,315,5.0,6.0,41,0.00,,,0.00,Weather View 32 v70,2013-05-07 00:17:00,
2013-05-06 16:18:00,49.5,27.3,30.42,WSW,248,6.0,6.0,42,0.00,,,0.00,Weather View 32 v70,2013-05-07 00:18:00,
2013-05-06 16:19:00,49.8,27.0,30.42,West,270,6.0,6.0,41,0.00,,,0.00,Weather View 32 v70,2013-05-07 00:19:00,
2013-05-06 16:20:00,49.8,27.0,30.42,West,270,6.0,6.0,41,0.00,,,0.00,Weather View 32 v70,2013-05-07 00:20:00,
2013-05-06 16:21:00,49.8,27.0,30.42,West,270,6.0,6.0,41,0.00,,,0.00,Weather View 32 v70,2013-05-07 00:21:00,
2013-05-06 16:22:00,49.6,26.9,30.42,NW,315,6.0,6.0,41,0.00,,,0.00,Weather View 32 v70,2013-05-07 00:22:00,
2013-05-06 16:23:00,49.6,26.9,30.42,WNW,292,5.0,6.0,41,0.00,,,0.00,Weather View 32 v70,2013-05-07 00:23:00,
2013-05-06 16:24:00,49.6,26.9,30.42,West,270,5.0,6.0,41,0.00,,,0.00,Weather View 32 v70,2013-05-07 00:24:00,
2013-05-06 16:25:00,49.6,26.9,30.42,West,270,5.0,6.0,41,0.00,,,0.00,Weather View 32 v70,2013-05-07 00:25:00,
2013-05-06 16:26:00,49.5,26.7,30.42,West,270,5.0,6.0,41,0.00,,,0.00,Weather View 32 v70,2013-05-07 00:26:00,
2013-05-06 16:27:00,49.5,26.7,30.42,West,270,5.0,6.0,41,0.00,,,0.00,Weather View 32 v70,2013-05-07 00:27:00,
2013-05-06 16:28:00,49.5,26.7,30.42,West,270,5.0,6.0,41,0.00,,,0.00,Weather View 32 v70,2013-05-07 00:28:00,
2013-05-06 16:29:00,49.3,25.3,30.42,WNW,292,5.0,6.0,39,0.00,,,0.00,Weather View 32 v70,2013-05-07 00:29:00,
2013-05-06 16:30:00,49.3,25.3,30.42,WNW,292,5.0,6.0,39,0.00,,,0.00,Weather View 32 v70,2013-05-07 00:30:00,
2013-05-06 16:31:00,49.3,25.3,30.42,WNW,292,5.0,6.0,39,0.00,,,0.00,Weather View 32 v70,2013-05-07 00:31:00,
2013-05-06 16:32:00,49.3,25.9,30.42,NW,315,4.0,6.0,40,0.00,,,0.00,Weather View 32 v70,2013-05-07 00:32:00,
2013-05-06 16:33:00,49.3,25.9,30.42,NW,315,4.0,6.0,40,0.00,,,0.00,Weather View 32 v70,2013-05-07 00:33:00,
2013-05-06 16:34:00,49.3,25.9,30.42,NW,315,4.0,6.0,40,0.00,,,0.00,Weather View 32 v70,2013-05-07 00:34:00,
2013-05-06 16:35:00,49.3,25.9,30.42,NW,315,4.0,6.0,40,0.00,,,0.00,Weather View 32 v70,2013-05-07 00:35:00,
2013-05-06 16:36:00,49.3,25.9,30.42,WSW,248,4.0,6.0,40,0.00,,,0.00,Weather View 32 v70,2013-05-07 00:36:00,
2013-05-06 16:37:00,49.1,25.8,30.42,WSW,248,4.0,6.0,40,0.00,,,0.00,Weather View 32 v70,2013-05-07 00:37:00,
2013-05-06 16:38:00,49.1,25.8,30.42,West,270,5.0,6.0,40,0.00,,,0.00,Weather View 32 v70,2013-05-07 00:38:00,
2013-05-06 16:39:00,49.1,25.8,30.42,West,270,5.0,6.0,40,0.00,,,0.00,Weather View 32 v70,2013-05-07 00:39:00,
2013-05-06 16:40:00,49.1,25.8,30.42,NW,315,5.0,6.0,40,0.00,,,0.00,Weather View 32 v70,2013-05-07 00:40:00,
2013-05-06 16:41:00,49.1,25.8,30.42,NW,315,5.0,6.0,40,0.00,,,0.00,Weather View 32 v70,2013-05-07 00:41:00,
2013-05-06 16:42:00,49.1,25.8,30.42,West,270,5.0,6.0,40,0.00,,,0.00,Weather View 32 v70,2013-05-07 00:42:00,
2013-05-06 16:43:00,49.1,26.4,30.42,WSW,248,5.0,6.0,41,0.00,,,0.00,Weather View 32 v70,2013-05-07 00:43:00,
2013-05-06 16:44:00,49.1,26.4,30.42,WSW,248,5.0,6.0,41,0.00,,,0.00,Weather View 32 v70,2013-05-07 00:44:00,
2013-05-06 16:45:00,49.1,26.4,30.42,WSW,248,5.0,6.0,41,0.00,,,0.00,Weather View 32 v70,2013-05-07 00:45:00,
2013-05-06 16:46:00,49.1,26.4,30.42,NW,315,5.0,6.0,41,0.00,,,0.00,Weather View 32 v70,2013-05-07 00:46:00,
2013-05-06 16:47:00,49.3,26.5,30.42,West,270,5.0,6.0,41,0.00,,,0.00,Weather View 32 v70,2013-05-07 00:47:00,
2013-05-06 16:48:00,49.3,26.5,30.42,West,270,5.0,6.0,41,0.00,,,0.00,Weather View 32 v70,2013-05-07 00:48:00,
2013-05-06 16:50:00,49.1,27.0,30.42,West,270,5.0,6.0,42,0.00,,,0.00,Weather View 32 v70,2013-05-07 00:50:00,
2013-05-06 16:51:00,48.9,26.2,30.42,West,270,5.0,6.0,41,0.00,,,0.00,Weather View 32 v70,2013-05-07 00:51:00,
2013-05-06 16:52:00,49.5,26.7,30.42,West,270,5.0,6.0,41,0.00,,,0.00,Weather View 32 v70,2013-05-07 00:52:00,
2013-05-06 16:53:00,49.1,27.0,30.42,NW,315,5.0,6.0,42,0.00,,,0.00,Weather View 32 v70,2013-05-07 00:53:00,
2013-05-06 16:54:00,49.1,27.0,30.42,NW,315,5.0,6.0,42,0.00,,,0.00,Weather View 32 v70,2013-05-07 00:54:00,
2013-05-06 16:55:00,49.1,27.0,30.42,WNW,292,5.0,6.0,42,0.00,,,0.00,Weather View 32 v70,2013-05-07 00:55:00,
2013-05-06 16:56:00,49.1,27.0,30.42,WNW,292,5.0,6.0,42,0.00,,,0.00,Weather View 32 v70,2013-05-07 00:56:00,
2013-05-06 16:57:00,49.1,27.0,30.42,WSW,248,5.0,6.0,42,0.00,,,0.00,Weather View 32 v70,2013-05-07 00:57:00,
2013-05-06 16:58:00,49.1,27.0,30.42,WSW,248,5.0,6.0,42,0.00,,,0.00,Weather View 32 v70,2013-05-07 00:58:00,
2013-05-06 16:59:00,49.1,27.0,30.42,WSW,248,5.0,6.0,42,0.00,,,0.00,Weather View 32 v70,2013-05-07 00:59:00,
2013-05-06 17:00:00,49.1,27.5,30.42,SW,225,5.0,6.0,43,0.00,,,0.00,Weather View 32 v70,2013-05-07 01:00:00,
2013-05-06 17:01:00,49.1,27.5,30.42,NW,315,5.0,6.0,43,0.00,,,0.00,Weather View 32 v70,2013-05-07 01:01:00,
2013-05-06 17:02:00,49.1,27.5,30.42,NW,315,5.0,6.0,43,0.00,,,0.00,Weather View 32 v70,2013-05-07 01:02:00,
2013-05-06 17:03:00,48.9,27.4,30.42,West,270,5.0,6.0,43,0.00,,,0.00,Weather View 32 v70,2013-05-07 01:03:00,
2013-05-06 17:04:00,48.9,27.4,30.42,West,270,5.0,6.0,43,0.00,,,0.00,Weather View 32 v70,2013-05-07 01:04:00,
2013-05-06 17:05:00,48.9,27.4,30.42,West,270,5.0,6.0,43,0.00,,,0.00,Weather View 32 v70,2013-05-07 01:05:00,
2013-05-06 17:06:00,48.9,27.9,30.42,West,270,5.0,6.0,44,0.00,,,0.00,Weather View 32 v70,2013-05-07 01:06:00,
2013-05-06 17:07:00,48.9,27.9,30.42,West,270,5.0,6.0,44,0.00,,,0.00,Weather View 32 v70,2013-05-07 01:07:00,
2013-05-06 17:12:00,48.6,27.6,30.42,West,270,5.0,6.0,44,0.00,,,0.00,Weather View 32 v70,2013-05-07 01:12:00,
2013-05-06 17:18:00,49.3,26.5,30.42,West,270,5.0,6.0,41,0.00,,,0.00,Weather View 32 v70,2013-05-07 01:18:00,
2013-05-06 17:24:00,49.1,27.0,30.42,NW,315,5.0,6.0,42,0.00,,,0.00,Weather View 32 v70,2013-05-07 01:24:00,
2013-05-06 17:29:00,49.1,27.5,30.42,SW,225,5.0,6.0,43,0.00,,,0.00,Weather View 32 v70,2013-05-07 01:29:00,
2013-05-06 17:35:00,48.6,25.9,30.42,WSW,248,4.0,5.0,41,0.00,,,0.00,Weather View 32 v70,2013-05-07 01:35:00,
2013-05-06 17:41:00,48.6,25.9,30.42,West,270,4.0,5.0,41,0.00,,,0.00,Weather View 32 v70,2013-05-07 01:41:00,
2013-05-06 17:46:00,48.6,27.0,30.42,WSW,248,3.0,5.0,43,0.00,,,0.00,Weather View 32 v70,2013-05-07 01:46:00,
2013-05-06 17:55:00,48.0,27.1,30.42,West,270,3.0,5.0,44,0.00,,,0.00,Weather View 32 v70,2013-05-07 01:55:00,
2013-05-06 18:00:00,48.0,27.1,30.42,West,270,4.0,5.0,44,0.00,,,0.00,Weather View 32 v70,2013-05-07 02:00:00,
2013-05-06 18:10:00,47.8,26.9,30.43,WSW,248,3.0,5.0,44,0.00,,,0.00,Weather View 32 v70,2013-05-07 02:10:00,
2013-05-06 18:15:00,47.3,26.5,30.43,WSW,248,3.0,5.0,44,0.00,,,0.00,Weather View 32 v70,2013-05-07 02:15:00,
2013-05-06 18:20:00,47.3,26.5,30.43,South,180,3.0,5.0,44,0.00,,,0.00,Weather View 32 v70,2013-05-07 02:20:00,
2013-05-06 18:25:00,46.9,26.1,30.44,West,270,4.0,5.0,44,0.00,,,0.00,Weather View 32 v70,2013-05-07 02:25:00,
2013-05-06 18:35:00,46.6,26.3,30.44,NW,315,3.0,4.0,45,0.00,,,0.00,Weather View 32 v70,2013-05-07 02:35:00,
2013-05-06 18:45:00,46.2,26.0,30.44,SSW,202,3.0,4.0,45,0.00,,,0.00,Weather View 32 v70,2013-05-07 02:45:00,
2013-05-06 18:50:00,46.0,26.4,30.44,West,270,3.0,4.0,46,0.00,,,0.00,Weather View 32 v70,2013-05-07 02:50:00,
2013-05-06 18:55:00,45.7,26.1,30.44,WSW,248,3.0,4.0,46,0.00,,,0.00,Weather View 32 v70,2013-05-07 02:55:00,
2013-05-06 19:00:00,45.7,26.1,30.44,WNW,292,3.0,4.0,46,0.00,,,0.00,Weather View 32 v70,2013-05-07 03:00:00,
2013-05-06 19:05:00,45.5,26.4,30.45,West,270,2.0,4.0,47,0.00,,,0.00,Weather View 32 v70,2013-05-07 03:05:00,
2013-05-06 19:13:00,45.5,26.9,30.45,WSW,248,2.0,4.0,48,0.00,,,0.00,Weather View 32 v70,2013-05-07 03:13:00,
2013-05-06 19:20:00,45.1,26.1,30.45,SW,225,3.0,4.0,47,0.00,,,0.00,Weather View 32 v70,2013-05-07 03:20:00,
2013-05-06 19:25:00,44.8,25.7,30.45,NW,315,3.0,4.0,47,0.00,,,0.00,Weather View 32 v70,2013-05-07 03:25:00,
2013-05-06 19:30:00,44.6,26.1,30.45,West,270,3.0,4.0,48,0.00,,,0.00,Weather View 32 v70,2013-05-07 03:30:00,
2013-05-06 19:40:00,44.4,25.9,30.45,SSW,202,2.0,3.0,48,0.00,,,0.00,Weather View 32 v70,2013-05-07 03:40:00,
2013-05-06 19:45:00,44.2,26.3,30.45,WNW,292,2.0,3.0,49,0.00,,,0.00,Weather View 32 v70,2013-05-07 03:45:00,
2013-05-06 19:55:00,44.1,26.1,30.45,WSW,248,2.0,3.0,49,0.00,,,0.00,Weather View 32 v70,2013-05-07 03:55:00,
2013-05-06 20:00:00,43.7,26.3,30.45,NNW,338,3.0,3.0,50,0.00,,,0.00,Weather View 32 v70,2013-05-07 04:00:00,
2013-05-06 20:05:00,43.5,26.1,30.46,SSW,202,3.0,3.0,50,0.00,,,0.00,Weather View 32 v70,2013-05-07 04:05:00,
2013-05-06 20:10:00,43.3,26.4,30.46,West,270,3.0,3.0,51,0.00,,,0.00,Weather View 32 v70,2013-05-07 04:10:00,
2013-05-06 20:14:00,43.3,26.4,30.46,West,270,3.0,3.0,51,0.00,,,0.00,Weather View 32 v70,2013-05-07 04:14:00,
2013-05-06 20:20:00,43.0,26.5,30.46,West,270,2.0,3.0,52,0.00,,,0.00,Weather View 32 v70,2013-05-07 04:20:00,
2013-05-06 20:25:00,43.0,27.0,30.46,West,270,2.0,3.0,53,0.00,,,0.00,Weather View 32 v70,2013-05-07 04:25:00,
2013-05-06 20:30:00,42.6,26.7,30.46,West,270,2.0,3.0,53,0.00,,,0.00,Weather View 32 v70,2013-05-07 04:30:00,
2013-05-06 20:35:00,42.6,27.1,30.46,South,180,2.0,3.0,54,0.00,,,0.00,Weather View 32 v70,2013-05-07 04:35:00,
2013-05-06 20:40:00,42.3,26.8,30.46,WSW,248,3.0,3.0,54,0.00,,,0.00,Weather View 32 v70,2013-05-07 04:40:00,
2013-05-06 20:45:00,42.1,26.6,30.46,WSW,248,2.0,3.0,54,0.00,,,0.00,Weather View 32 v70,2013-05-07 04:45:00,
2013-05-06 20:55:00,41.7,26.7,30.46,SW,225,1.0,3.0,55,0.00,,,0.00,Weather View 32 v70,2013-05-07 04:55:00,
2013-05-06 21:00:00,41.7,26.7,30.46,NW,315,1.0,3.0,55,0.00,,,0.00,Weather View 32 v70,2013-05-07 05:00:00,
2013-05-06 21:10:00,41.5,26.6,30.46,West,270,1.0,3.0,55,0.00,,,0.00,Weather View 32 v70,2013-05-07 05:10:00,
2013-05-06 21:15:00,41.2,26.2,30.46,SW,225,1.0,3.0,55,0.00,,,0.00,Weather View 32 v70,2013-05-07 05:15:00,
2013-05-06 21:25:00,40.6,26.1,30.47,WSW,248,0.0,3.0,56,0.00,,,0.00,Weather View 32 v70,2013-05-07 05:25:00,
2013-05-06 21:30:00,40.6,26.1,30.47,SW,225,0.0,3.0,56,0.00,,,0.00,Weather View 32 v70,2013-05-07 05:30:00,
2013-05-06 21:35:00,40.1,26.1,30.47,WSW,248,0.0,3.0,57,0.00,,,0.00,Weather View 32 v70,2013-05-07 05:35:00,
2013-05-06 21:41:00,39.9,25.9,30.47,WSW,248,0.0,3.0,57,0.00,,,0.00,Weather View 32 v70,2013-05-07 05:41:00,
2013-05-06 22:00:00,38.7,27.1,30.47,SW,225,0.0,1.0,63,0.00,,,0.00,Weather View 32 v70,2013-05-07 06:00:00,
2013-05-06 22:10:00,38.3,26.8,30.47,WNW,292,0.0,1.0,63,0.00,,,0.00,Weather View 32 v70,2013-05-07 06:10:00,
2013-05-06 22:15:00,37.6,26.5,30.47,WNW,292,0.0,1.0,64,0.00,,,0.00,Weather View 32 v70,2013-05-07 06:15:00,
2013-05-06 22:20:00,37.2,26.9,30.47,WNW,292,0.0,1.0,66,0.00,,,0.00,Weather View 32 v70,2013-05-07 06:20:00,
2013-05-06 22:25:00,37.0,26.7,30.46,WNW,292,0.0,0.0,66,0.00,,,0.00,Weather View 32 v70,2013-05-07 06:25:00,
2013-05-06 22:30:00,36.9,26.9,30.46,SW,225,0.0,0.0,67,0.00,,,0.00,Weather View 32 v70,2013-05-07 06:30:00,
2013-05-06 22:35:00,36.5,26.2,30.46,SW,225,0.0,0.0,66,0.00,,,0.00,Weather View 32 v70,2013-05-07 06:35:00,
2013-05-06 22:40:00,36.3,26.4,30.46,SW,225,0.0,0.0,67,0.00,,,0.00,Weather View 32 v70,2013-05-07 06:40:00,
2013-05-06 22:45:00,36.1,26.6,30.44,SW,225,0.0,0.0,68,0.00,,,0.00,Weather View 32 v70,2013-05-07 06:45:00,
2013-05-06 22:50:00,36.0,26.8,30.44,SW,225,0.0,0.0,69,0.00,,,0.00,Weather View 32 v70,2013-05-07 06:50:00,
2013-05-06 23:00:00,35.6,26.4,30.44,SW,225,0.0,0.0,69,0.00,,,0.00,Weather View 32 v70,2013-05-07 07:00:00,
2013-05-06 23:05:00,35.6,26.8,30.44,SE,135,0.0,0.0,70,0.00,,,0.00,Weather View 32 v70,2013-05-07 07:05:00,
2013-05-06 23:15:00,34.9,26.1,30.44,ESE,112,0.0,0.0,70,0.00,,,0.00,Weather View 32 v70,2013-05-07 07:15:00,
2013-05-06 23:25:00,34.9,26.4,30.44,SE,135,0.0,0.0,71,0.00,,,0.00,Weather View 32 v70,2013-05-07 07:25:00,
2013-05-06 23:35:00,34.5,26.4,30.44,SE,135,0.0,0.0,72,0.00,,,0.00,Weather View 32 v70,2013-05-07 07:35:00,
2013-05-06 23:40:00,34.7,26.6,30.44,ESE,112,0.0,0.0,72,0.00,,,0.00,Weather View 32 v70,2013-05-07 07:40:00,
2013-05-06 23:45:00,34.3,26.6,30.44,SE,135,0.0,0.0,73,0.00,,,0.00,Weather View 32 v70,2013-05-07 07:45:00,
2013-05-06 23:55:00,34.3,26.6,30.44,SW,225,0.0,0.0,73,0.00,,,0.00,Weather View 32 v70,2013-05-07 07:55:00,